Weather History for Hermiston, OR

Change the Weather History Date:

Monday, November 19, 2012

  Actual Average Record
Temperature  
Mean Temperature 58 °F -  
Max Temperature 66 °F 48 °F 66 °F (2003)
Min Temperature 50 °F 30 °F 10 °F (1929)
Degree Days  
Heating Degree Days 7    
Growing Degree Days 8 (Base 50)    
Moisture  
Dew Point 40 °F    
Average Humidity 55    
Maximum Humidity 96    
Minimum Humidity 36    
Precipitation  
Precipitation 0.14 in - - ()
Sea Level Pressure  
Sea Level Pressure 29.70 in    
Wind  
Wind Speed 15 mph (South)    
Max Wind Speed 29 mph    
Max Gust Speed 39 mph    
Visibility 10 miles    
Events Rain    
Averages and records for this station are not official NWS values.
T = Trace of Precipitation, MM = Missing Value Source: NWS Daily Summary

Daily Weather History Graph

Daily Weather History Graph

Search for Another Location

Airport:

Trip Planner

Search our weather history database for the weather conditions in past years. The results will help you decide how hot, cold, wet, or windy it might be!

Date:

Astronomy

Nov. 19, 2012 Rise Set
Actual Time 7:03 AM PST 4:21 PM PST
Civil Twilight 6:30 AM PST 4:54 PM PST
Nautical Twilight 5:54 AM PST 5:30 PM PST
Astronomical Twilight 5:18 AM PST 6:05 PM PST
Moon 12:01 PM PST (11/19) 11:03 PM PST (11/19)
Length of Visible Light 10h 23m
Length of Day
9h 18m
Waxing Crescent, 42% of the Moon is Illuminated
Nov 19
Waxing Crescent
Nov 20
First Quarter
Nov 28
Full
Dec 6
Last Quarter
Dec 13
New

Hourly Weather History & Observations

Time (PST) Temp. Dew Point Humidity Pressure Visibility Wind Dir Wind Speed Gust Speed Precip Events Conditions
12:53 AM 54.0 °F 36.0 °F 51% 29.74 in 10.0 mi SSE 15.0 mph 24.2 mph N/A   Mostly Cloudy
1:53 AM 55.0 °F 37.0 °F 51% 29.75 in 10.0 mi South 8.1 mph - 0.00 in   Overcast
2:53 AM 55.0 °F 37.0 °F 51% 29.74 in 10.0 mi SSW 5.8 mph - N/A   Overcast
3:53 AM 57.0 °F 36.0 °F 45% 29.73 in 10.0 mi SSW 10.4 mph - N/A   Overcast
4:53 AM 59.0 °F 36.0 °F 42% 29.72 in 10.0 mi South 17.3 mph 27.6 mph N/A   Overcast
5:53 AM 59.0 °F 35.1 °F 41% 29.71 in 10.0 mi South 21.9 mph 32.2 mph N/A   Overcast
6:53 AM 57.9 °F 35.1 °F 42% 29.72 in 10.0 mi South 19.6 mph 26.5 mph N/A   Overcast
7:53 AM 59.0 °F 35.1 °F 41% 29.72 in 10.0 mi South 20.7 mph 31.1 mph N/A   Mostly Cloudy
8:53 AM 60.1 °F 36.0 °F 41% 29.71 in 10.0 mi South 20.7 mph 34.5 mph N/A   Overcast
9:53 AM 62.1 °F 36.0 °F 38% 29.69 in 10.0 mi South 26.5 mph 38.0 mph N/A   Mostly Cloudy
10:53 AM 63.0 °F 36.0 °F 37% 29.67 in 10.0 mi South 28.8 mph 39.1 mph N/A   Overcast
11:53 AM 63.0 °F 37.0 °F 38% 29.65 in 10.0 mi SSE 16.1 mph 27.6 mph N/A   Overcast
12:53 PM 64.0 °F 37.0 °F 37% 29.62 in 10.0 mi South 21.9 mph 33.4 mph N/A   Overcast
1:53 PM 64.0 °F 37.0 °F 37% 29.60 in 10.0 mi South 20.7 mph 28.8 mph N/A   Overcast
2:53 PM 64.0 °F 37.9 °F 38% 29.60 in 10.0 mi SSE 19.6 mph 28.8 mph N/A   Overcast
3:53 PM 64.9 °F 37.9 °F 37% 29.59 in 10.0 mi South 12.7 mph 29.9 mph N/A   Overcast
4:53 PM 66.0 °F 37.9 °F 36% 29.57 in 10.0 mi South 19.6 mph 28.8 mph N/A   Overcast
5:53 PM 66.0 °F 37.9 °F 36% 29.61 in 10.0 mi South 15.0 mph 28.8 mph N/A   Overcast
6:21 PM 59.0 °F 44.6 °F 59% 29.68 in 10.0 mi West 19.6 mph 32.2 mph 0.00 in Rain Light Rain
6:29 PM 55.4 °F 48.2 °F 77% 29.68 in 10.0 mi West 16.1 mph 28.8 mph 0.01 in Rain Light Rain
6:53 PM 55.9 °F 48.0 °F 75% 29.69 in 10.0 mi West 9.2 mph - 0.01 in Rain Light Rain
7:53 PM 53.1 °F 46.9 °F 80% 29.69 in 10.0 mi West 3.5 mph - 0.01 in Rain Light Rain
8:53 PM 51.1 °F 48.0 °F 89% 29.73 in 10.0 mi South 4.6 mph - 0.00 in Rain Light Rain
9:53 PM 50.0 °F 48.0 °F 93% 29.77 in 10.0 mi Calm Calm - 0.04 in Rain Light Rain
10:28 PM 51.8 °F 48.2 °F 88% 29.80 in 10.0 mi South 6.9 mph - 0.01 in Rain Light Rain
10:53 PM 50.0 °F 48.9 °F 96% 29.80 in 9.0 mi South 4.6 mph - 0.03 in Rain Light Rain
11:53 PM 50.0 °F 48.9 °F 96% 29.83 in 10.0 mi SSE 3.5 mph - 0.05 in Rain Light Rain